Location: Lombard
(41.8800°N, 88.0080°W)
Time: 14:20:33
(UTC-05:00)

BEESAT 3 - Visible Passes

Search period start: 16 May 2022 00:00
Search period end: 26 May 2022 00:00
Orbit: 459 x 506 km, 64.9° (Epoch: 16 May)

Date Brightness Start Highest point End Pass type
(mag) Time Alt. Az. Time Alt. Az. Time Alt. Az.
16 May ? 21:09:25 10° S 21:12:47 32° ESE 21:16:13 10° NE visible
16 May ? 22:46:44 10° W 22:49:47 23° NW 22:52:52 10° N visible
17 May ? 20:43:33 10° S 20:46:42 26° ESE 20:49:53 10° ENE visible
17 May ? 22:20:18 10° WSW 22:23:33 27° NW 22:26:53 10° NNE visible
18 May ? 04:56:35 10° N 04:59:23 19° NE 05:02:10 10° E visible
18 May ? 21:53:53 10° WSW 21:57:19 33° NW 22:00:49 10° NNE visible
19 May ? 04:30:39 10° N 04:33:05 16° NE 04:35:31 10° E visible
19 May ? 21:27:28 10° WSW 21:31:02 41° NW 21:34:42 10° NNE visible
20 May ? 04:04:46 10° N 04:06:45 13° NE 04:08:44 10° ENE visible
20 May ? 21:01:06 10° SW 21:04:45 51° NW 21:08:30 10° NNE visible
21 May ? 03:39:02 10° NNE 03:40:22 11° NE 03:41:41 10° ENE visible
22 May ? 04:47:44 10° NNW 04:51:36 69° ENE 04:55:23 10° SE visible
22 May ? 21:48:37 10° NW 21:49:41 11° NW 21:50:45 10° NNW visible
23 May ? 04:21:27 10° NNW 04:25:14 54° NE 04:28:58 10° SE visible
23 May ? 21:21:22 10° WNW 21:23:11 13° NW 21:25:01 10° NNW visible
24 May ? 03:55:09 10° NNW 03:58:50 42° NE 04:02:28 10° SE visible
24 May ? 20:54:22 10° W 20:56:41 15° NW 20:59:00 10° N visible
25 May ? 03:28:50 10° NNW 03:32:23 34° NE 03:35:53 10° ESE visible
